Temperature
19 19 19 19 19 19 18 18 18 18 18 18 18 17 17 17 17 17 17 17 17 17 17 17 17 17 17 17 17 17 17 17 17 17 17 17 16 16 16 16 16 16 16
19 19 19 19 18 18 18 18 18 18 18 18 17 17 17 17 17 17 17 17 17 17 17 17 17 17 17 17 17 17 17 17 16 16 16 16 16 16 16 16 16 16 16
18 19 18 18 18 18 18 18 18 18 18 17 17 17 17 17 17 17 17 17 17 16 16 16 16 16 16 17 16 16 16 16 16 16 16 16 16 16 16 16 15 15 15
18 18 18 18 18 18 18 18 17 17 17 17 17 17 17 17 17 17 16 16 16 16 16 16 16 16 16 16 16 16 16 16 16 16 16 16 16 15 15 15 15 15 15
18 18 18 18 18 18 17 17 17 17 17 17 17 17 17 17 17 16 16 16 16 16 16 16 16 16 16 16 16 16 16 16 16 16 16 16 15 15 15 15 15 15 15
18 18 17 17 17 17 17 17 17 17 16 16 16 16 16 16 16 16 16 16 16 16 16 16 16 16 16 16 16 16 15 15 15 15 15 15 15 15 15 15 14 14 14
17 17 17 17 17 16 16 16 16 16 16 16 16 16 16 16 16 16 16 16 15 15 15 15 16 15 15 15 15 15 15 15 15 15 15 14 14 15 14 14 14 14 14
17 17 17 16 16 16 16 16 16 16 15 15 15 15 15 15 16 16 16 15 15 15 15 15 15 15 15 15 14 14 14 14 14 14 14 14 14 14 14 14 14 13 14
16 16 16 16 15 15 15 15 15 15 15 15 15 15 15 15 15 15 15 15 14 14 14 14 14 14 14 14 14 14 14 14 14 14 14 14 14 14 14 13 13 13 14
16 15 15 15 15 15 15 15 15 15 15 14 14 14 14 15 15 15 15 15 14 14 14 14 14 14 14 14 14 13 13 13 13 13 13 13 13 13 13 13 13 13 13
15 15 15 15 15 15 15 14 14 14 14 14 14 14 14 14 15 15 15 14 14 14 14 14 14 14 14 14 14 13 13 13 13 13 13 13 13 13 13 12 12 12 12
15 15 14 14 15 15 14 14 14 14 14 14 14 14 14 14 14 14 14 14 14 14 14 14 14 13 13 13 13 13 13 13 13 13 13 13 13 13 12 12 12 12 12
14 14 14 14 14 14 14 14 14 14 14 14 14 14 14 14 14 14 14 14 14 13 13 13 13 13 13 13 13 13 12 12 12 12 12 12 12 12 12 12 11 11 11
14 14 14 14 14 14 14 14 14 14 14 14 14 14 14 14 13 13 13 13 13 12 12 12 12 12 12 12 12 12 12 12 12 12 12 12 12 12 12 12 11 11 11
13 13 13 14 14 14 14 14 14 14 14 13 13 13 13 13 13 13 13 13 12 12 12 12 12 12 12 12 12 11 11 11 11 11 11 12 12 12 12 11 11 11 11
13 13 13 13 13 13 13 13 13 13 13 13 13 13 13 13 13 12 12 12 12 12 12 11 11 11 11 11 11 11 11 11 11 11 11 11 11 11 11 11 11 11 11
13 13 13 13 13 13 13 13 13 13 12 12 12 12 12 12 12 12 12 12 11 11 11 11 11 11 11 11 11 11 11 11 10 10 10 10 11 11 11 10 10 10 10
13 13 13 13 12 12 12 12 12 12 12 12 12 12 11 11 11 11 11 11 11 11 11 10 10 10 10 10 10 10 10 10 10 10 10 10 10 10 10 10 10 10 10
12 12 12 12 12 12 12 12 12 12 12 11 11 11 11 11 11 11 10 10 10 10 10 10 10 10 10 10 9 9 9 9 9 9 9 9 9 9 9 9 9 9 9
12 12 12 12 12 12 12 12 12 11 11 11 11 11 11 10 10 10 10 10 10 10 10 10 9 9 9 9 9 9 9 9 9 9 9 9 9 9 9 9 9 9 9
12 12 11 12 12 12 11 11 11 11 11 11 11 10 10 10 10 10 10 10 9 9 9 9 9 9 9 9 9 9 9 9 8 8 8 8 8 8 8 8 8 8 8
12 11 11 11 11 11 11 11 11 11 11 11 10 10 10 10 10 10 10 9 9 9 9 9 9 9 9 8 8 8 8 8 8 8 8 8 8 8 8 8 8 8 8
11 11 11 11 11 11 11 10 10 10 10 10 10 10 10 9 9 9 9 9 9 8 8 8 8 8 8 8 8 8 8 8 8 8 8 8 7 7 7 7 7 7 7
11 11 10 10 10 10 10 10 10 10 10 10 9 9 9 9 9 8 8 8 8 8 8 8 8 8 8 7 7 7 7 7 7 7 7 7 7 7 7 7 7 7 7
10 10 10 10 10 10 10 10 9 9 9 9 9 9 9 9 8 8 8 8 7 7 7 7 7 7 7 7 7 7 7 7 7 7 7 7 7 7 6 6 7 7 7
10 10 9 9 9 9 9 9 9 9 9 9 9 8 8 8 8 8 8 7 7 7 7 7 7 7 7 7 7 7 7 7 7 7 7 6 6 6 6 6 6 6 6
Wind_Speed
5 5 5 4 5 5 5 4 4 4 3 4 4 5 5 6 6 6 7 7 8 7 7 7 8 8 6 6 6 6 6 7 8 7 5 4 5 6 5 6 7 7 6
5 5 5 4 4 4 5 5 5 5 5 4 4 4 5 5 6 6 7 7 7 7 7 7 7 6 7 7 6 7 6 6 8 8 6 5 6 6 6 7 6 6 6
5 5 5 5 5 5 5 5 5 5 6 5 5 5 6 6 6 7 7 7 7 7 7 7 7 7 7 6 6 7 7 7 7 8 8 5 6 5 5 6 6 5 7
4 4 4 5 5 5 5 5 5 5 6 6 6 6 6 6 6 6 7 7 7 6 6 6 7 7 7 7 6 7 7 6 7 7 7 6 5 5 5 6 6 5 6
3 4 4 5 5 5 5 5 5 5 6 6 6 6 6 6 5 6 6 7 6 6 6 6 6 6 5 6 6 6 6 6 6 6 6 6 5 4 5 5 6 6 6
3 3 3 4 4 5 5 5 5 5 5 5 5 6 6 5 2 3 5 6 6 6 6 6 6 6 5 5 4 5 6 7 7 7 6 6 6 6 5 6 6 5 6
2 2 3 4 4 5 5 4 5 5 5 5 5 5 5 4 3 4 5 6 6 6 5 5 5 3 4 4 5 6 6 7 8 8 8 7 6 5 6 7 6 7 7
2 2 2 3 4 4 4 5 5 4 4 5 5 5 5 4 3 4 5 7 7 6 6 5 5 5 4 3 4 5 5 5 6 7 6 6 6 4 5 7 7 7 7
2 2 2 3 4 4 5 5 4 4 4 4 5 5 5 4 4 4 6 6 6 6 6 6 6 6 3 3 5 5 5 5 4 4 4 5 4 4 5 5 5 5 6
2 2 2 3 4 4 4 4 4 4 5 5 4 5 6 5 4 5 6 6 6 5 5 5 5 5 4 4 6 6 6 5 5 4 5 6 6 5 6 6 6 6 6
2 2 2 2 3 3 3 3 4 4 4 4 4 5 5 5 5 6 6 6 6 6 5 5 4 6 6 6 7 7 6 5 6 6 5 5 4 4 4 4 4 5 6
2 2 2 3 3 3 3 3 4 4 4 4 4 5 4 4 4 4 6 7 6 6 5 5 3 5 7 7 6 4 4 5 6 5 5 4 4 4 3 3 4 5 5
2 2 2 3 3 3 3 3 4 4 4 4 4 4 4 3 2 4 6 6 6 6 5 1 1 4 6 6 7 7 6 6 5 5 5 5 4 3 3 3 4 4 5
3 3 2 3 2 2 3 3 3 3 4 4 4 4 4 3 2 2 2 3 5 5 4 3 5 6 6 5 4 6 6 5 5 6 6 5 4 3 3 3 3 3 4
3 3 3 2 2 2 2 2 3 2 2 3 4 4 4 4 2 2 2 3 3 2 2 3 4 4 4 4 4 4 4 5 5 5 5 5 4 4 4 3 3 3 4
3 3 3 2 2 2 1 1 2 1 1 0 3 4 2 1 1 1 2 2 2 2 3 4 4 4 5 4 4 4 4 4 4 4 4 4 4 4 4 3 3 4 5
3 3 3 3 2 2 2 2 1 0 2 1 0 2 2 1 1 0 1 1 1 3 3 3 3 3 3 3 3 3 3 2 2 3 4 4 4 4 4 4 4 4 5
4 3 4 3 3 3 2 2 2 2 2 1 0 1 1 1 1 0 1 2 1 1 2 2 2 2 2 2 2 2 2 2 2 3 3 4 4 4 4 4 4 4 4
3 3 3 3 3 3 2 2 2 2 2 1 1 1 2 2 2 1 2 1 1 1 1 1 2 2 2 1 2 2 2 2 2 2 3 3 3 4 4 4 4 3 4
3 2 3 3 3 2 2 2 2 2 2 1 1 0 1 1 1 1 1 1 1 1 1 2 2 2 2 2 2 2 2 2 2 2 3 3 3 3 4 4 4 4 4
3 2 3 3 2 2 2 2 2 2 2 1 1 1 1 1 1 0 1 1 1 2 2 2 2 2 2 2 2 2 3 2 2 3 3 3 3 3 4 4 4 4 4
2 2 2 2 1 1 2 1 1 1 2 1 1 2 3 1 1 1 1 1 2 2 2 2 2 2 2 1 2 2 3 3 3 3 3 4 4 4 4 4 4 4 4
2 2 2 1 1 1 1 1 1 1 1 1 1 0 1 0 1 1 1 1 1 1 1 2 2 2 2 2 2 2 3 3 3 4 4 4 4 4 4 4 5 5 5
2 1 1 1 1 1 1 1 1 1 1 0 0 0 0 1 1 1 2 2 1 1 1 2 2 2 3 2 2 2 3 4 4 4 4 4 4 4 4 4 5 5 5
2 1 1 1 2 1 1 1 0 0 0 0 0 0 1 0 0 1 1 2 2 2 2 2 2 2 2 2 3 3 5 5 5 5 4 4 4 4 4 5 5 5 5
2 2 2 2 2 1 1 1 1 0 0 0 0 0 0 0 0 1 1 1 1 1 1 2 2 2 2 2 3 4 4 4 5 6 5 4 3 3 4 4 4 4 5
Wind_Direction
191 195 205 207 212 219 225 234 239 248 251 252 252 250 245 240 238 237 242 236 236 238 240 239 239 244 242 239 241 246 251 256 262 267 261 253 253 264 261 256 249 246 233
193 195 200 209 212 219 224 232 237 241 243 243 244 245 249 243 240 238 240 243 238 236 238 242 244 241 238 243 243 246 248 249 254 264 266 257 250 249 253 258 259 254 256
191 198 201 209 214 222 232 236 237 238 242 245 242 243 247 247 242 240 240 242 239 238 238 239 243 244 245 247 248 249 250 248 246 253 257 258 259 252 254 257 259 260 263
194 202 209 219 220 223 231 238 238 238 240 242 243 244 245 246 242 244 244 242 239 239 236 238 243 243 244 244 246 249 252 254 250 253 257 255 258 256 254 263 265 258 268
197 208 215 225 226 226 230 234 238 239 240 241 242 242 243 243 244 247 248 244 242 240 235 238 240 241 249 251 257 250 249 251 253 253 254 254 256 258 256 261 267 272 266
210 215 218 224 227 230 233 236 237 239 245 243 240 240 241 245 229 248 260 255 250 242 239 237 231 223 218 222 246 261 266 257 260 261 258 258 256 257 260 265 269 271 273
226 229 226 229 231 235 239 236 238 239 240 243 244 246 249 250 213 223 248 255 251 246 241 240 245 230 224 235 223 228 250 259 263 267 267 270 268 266 263 262 262 265 271
241 243 246 245 243 241 240 239 239 239 241 245 248 250 253 248 202 225 245 248 251 245 241 238 239 238 241 245 250 250 252 253 251 254 262 268 274 278 261 261 265 258 259
260 272 265 256 249 244 243 244 243 244 248 250 251 247 248 243 206 225 252 252 243 240 237 234 233 232 211 245 246 251 255 256 238 234 260 265 274 269 272 269 263 261 268
271 279 282 270 255 249 248 247 246 245 251 256 257 255 252 250 216 216 241 252 244 240 233 227 219 219 201 233 240 244 247 253 258 243 239 240 244 235 225 249 266 266 275
286 282 275 275 266 260 257 255 256 254 259 266 268 266 260 254 229 211 228 249 251 244 240 237 216 174 201 228 247 248 249 257 254 253 251 247 246 242 236 237 258 267 273
281 271 268 267 265 254 251 258 259 259 254 257 259 265 261 249 237 213 215 236 264 249 246 246 216 179 207 219 234 238 243 251 250 253 258 259 257 258 255 258 260 263 272
297 283 281 272 265 258 245 241 245 249 260 265 264 262 264 268 235 186 200 217 232 242 249 272 201 201 218 222 217 218 225 241 249 254 259 262 263 261 258 248 245 242 254
303 296 286 273 265 268 272 260 259 261 267 269 270 270 266 261 273 274 241 216 210 228 242 213 201 215 235 253 224 216 231 242 251 255 257 255 256 254 248 255 262 268 279
293 295 294 289 292 283 282 300 283 287 299 285 284 281 272 264 296 345 286 266 261 259 254 238 233 229 232 232 236 240 243 240 240 248 256 260 257 256 262 269 272 272 274
272 283 288 288 299 299 302 307 55 354 82 11 323 306 308 354 58 304 284 287 290 254 247 237 238 243 249 248 245 246 247 247 251 256 256 258 261 267 271 272 270 269 272
275 287 290 290 287 287 285 291 301 82 138 137 324 327 322 356 84 146 246 247 224 211 233 243 243 245 251 254 248 248 256 261 268 264 264 265 262 261 262 265 266 269 275
273 272 278 285 285 282 281 286 288 289 291 310 128 137 227 229 189 160 153 151 139 197 254 258 261 263 266 269 268 261 257 249 256 267 270 271 269 265 262 263 266 275 284
269 275 271 276 273 273 282 285 281 276 286 309 336 81 142 168 169 165 176 206 260 262 274 279 287 292 286 266 259 263 263 255 258 265 268 272 274 271 271 273 277 273 273
251 259 274 271 268 265 269 279 285 277 262 260 258 334 132 157 147 130 172 279 290 301 310 297 295 294 277 260 248 252 262 255 246 254 267 272 278 281 280 282 285 286 281
265 229 212 253 262 268 266 268 282 290 280 270 267 102 137 217 218 269 285 278 285 292 299 299 286 267 262 255 250 242 248 253 256 264 268 271 272 273 277 279 282 286 291
265 254 244 249 253 264 279 279 285 286 284 293 327 112 141 246 315 351 353 355 354 349 336 316 303 302 303 292 277 269 268 269 269 271 273 274 273 270 272 272 275 281 282
253 259 245 239 249 212 229 257 288 303 308 319 326 25 126 314 328 352 359 359 1 3 3 349 334 335 348 333 305 287 283 288 291 288 285 281 280 278 277 277 280 285 286
248 258 270 268 259 260 269 295 301 295 297 321 355 10 13 19 353 2 355 357 354 357 351 340 339 352 355 343 334 333 339 336 318 299 292 289 286 286 284 277 278 283 282
234 229 231 241 236 224 238 277 295 312 9 31 62 40 36 35 21 15 350 349 357 1 346 328 331 344 349 338 339 351 7 357 331 314 288 280 281 284 289 290 293 296 293
226 228 230 229 226 227 224 227 233 261 201 96 75 47 16 350 321 319 306 318 340 352 342 330 336 349 350 336 4 16 16 353 328 313 295 280 279 286 291 287 293 294 296
Height
1513 1514 1516 1516 1517 1518 1519 1520 1520 1521 1521 1522 1522 1522 1523 1523 1524 1524 1525 1525 1526 1526 1526 1527 1527 1527 1528 1529 1529 1529 1530 1530 1529 1528 1529 1527 1526 1526 1525 1525 1524 1523 1522
1511 1512 1513 1514 1515 1515 1516 1516 1517 1517 1518 1518 1518 1519 1519 1519 1520 1521 1521 1522 1522 1522 1522 1523 1523 1524 1524 1524 1524 1525 1525 1525 1525 1524 1524 1523 1522 1521 1521 1520 1520 1520 1518
1508 1509 1510 1511 1512 1512 1512 1513 1513 1514 1514 1515 1515 1515 1515 1516 1516 1517 1518 1518 1518 1518 1518 1519 1519 1520 1520 1520 1520 1520 1520 1520 1520 1519 1519 1518 1518 1517 1516 1516 1516 1514 1514
1506 1507 1507 1508 1508 1509 1509 1510 1510 1510 1510 1511 1511 1511 1512 1512 1512 1513 1514 1514 1514 1514 1514 1514 1515 1515 1515 1515 1515 1515 1515 1515 1515 1515 1514 1514 1513 1513 1512 1512 1511 1510 1509
1504 1504 1505 1505 1506 1506 1506 1506 1507 1507 1507 1507 1507 1507 1508 1508 1508 1509 1509 1510 1509 1510 1510 1510 1510 1511 1510 1511 1511 1511 1511 1511 1511 1511 1510 1509 1509 1508 1508 1507 1507 1506 1505
1501 1502 1502 1502 1503 1503 1503 1503 1503 1503 1503 1503 1503 1503 1504 1504 1504 1504 1505 1505 1505 1505 1505 1506 1506 1506 1506 1506 1506 1506 1507 1506 1507 1507 1506 1505 1504 1504 1503 1503 1503 1502 1501
1499 1499 1499 1499 1499 1499 1500 1500 1500 1500 1500 1500 1500 1500 1499 1500 1500 1500 1501 1501 1501 1501 1501 1501 1502 1502 1502 1502 1502 1502 1502 1501 1502 1502 1502 1501 1500 1499 1499 1498 1497 1497 1496
1496 1496 1496 1496 1496 1496 1496 1496 1496 1497 1497 1496 1496 1496 1496 1496 1496 1496 1496 1496 1497 1497 1497 1497 1497 1497 1498 1498 1498 1498 1497 1497 1497 1497 1497 1496 1496 1495 1494 1494 1493 1492 1491
1493 1493 1493 1493 1493 1493 1493 1493 1493 1493 1493 1493 1493 1492 1492 1491 1491 1491 1491 1492 1492 1492 1492 1493 1493 1493 1493 1493 1493 1493 1493 1493 1493 1493 1493 1492 1491 1491 1490 1490 1489 1489 1488
1491 1490 1490 1490 1490 1490 1490 1489 1490 1490 1490 1490 1489 1488 1488 1487 1486 1486 1487 1487 1488 1488 1488 1488 1488 1489 1489 1489 1489 1489 1489 1489 1490 1489 1489 1488 1487 1486 1485 1485 1485 1485 1484
1489 1488 1488 1487 1487 1487 1487 1487 1487 1487 1486 1486 1485 1484 1483 1483 1482 1482 1482 1483 1483 1484 1484 1484 1485 1484 1484 1484 1485 1485 1485 1485 1485 1485 1485 1485 1484 1483 1482 1481 1481 1481 1480
1486 1486 1485 1485 1485 1485 1484 1484 1484 1484 1483 1482 1481 1480 1480 1479 1478 1478 1478 1478 1479 1479 1480 1480 1480 1480 1480 1480 1480 1480 1481 1481 1481 1482 1482 1481 1481 1480 1479 1478 1477 1476 1476
1484 1483 1483 1482 1482 1482 1481 1481 1481 1481 1480 1479 1478 1477 1477 1476 1475 1474 1474 1474 1474 1475 1476 1476 1475 1475 1475 1475 1475 1476 1476 1477 1477 1478 1478 1478 1477 1477 1475 1474 1473 1472 1472
1482 1482 1481 1480 1479 1479 1479 1479 1478 1478 1477 1476 1475 1474 1474 1473 1472 1471 1471 1471 1471 1472 1471 1471 1471 1471 1471 1471 1471 1472 1472 1472 1473 1473 1474 1473 1473 1473 1472 1471 1470 1470 1469
1481 1480 1479 1478 1478 1477 1476 1476 1475 1474 1474 1473 1472 1471 1470 1470 1469 1468 1468 1468 1468 1468 1467 1468 1468 1468 1468 1468 1468 1468 1469 1469 1469 1470 1470 1469 1469 1469 1468 1468 1467 1467 1466
1478 1478 1478 1477 1476 1475 1474 1473 1472 1472 1471 1469 1469 1468 1467 1466 1465 1465 1465 1464 1464 1464 1464 1464 1464 1464 1464 1464 1464 1465 1465 1465 1465 1466 1466 1465 1465 1465 1465 1465 1464 1464 1462
1475 1475 1475 1474 1474 1473 1472 1471 1471 1470 1468 1467 1466 1465 1464 1463 1462 1461 1461 1461 1461 1461 1461 1461 1460 1460 1460 1461 1461 1461 1461 1462 1462 1462 1462 1462 1462 1462 1462 1461 1461 1460 1459
1472 1472 1472 1472 1472 1471 1470 1469 1469 1467 1467 1465 1464 1463 1462 1461 1460 1459 1458 1458 1458 1458 1458 1458 1458 1458 1458 1458 1458 1458 1458 1458 1459 1459 1459 1459 1459 1459 1458 1458 1457 1457 1456
1470 1470 1470 1470 1469 1468 1468 1467 1466 1466 1464 1464 1462 1462 1461 1460 1459 1458 1458 1457 1457 1457 1457 1456 1456 1456 1456 1456 1455 1455 1456 1456 1455 1455 1456 1456 1455 1455 1455 1454 1453 1453 1452
1468 1467 1467 1467 1467 1466 1466 1465 1464 1463 1463 1462 1461 1460 1459 1459 1459 1458 1457 1457 1457 1457 1456 1455 1455 1454 1454 1454 1453 1453 1453 1453 1453 1453 1453 1453 1452 1452 1452 1451 1450 1450 1449
1466 1465 1464 1464 1465 1464 1463 1463 1462 1462 1461 1460 1460 1459 1458 1458 1458 1458 1457 1457 1456 1456 1455 1454 1454 1453 1453 1453 1452 1452 1451 1451 1451 1451 1451 1450 1449 1449 1449 1448 1447 1447 1446
1464 1463 1463 1462 1462 1461 1461 1461 1461 1460 1460 1459 1458 1457 1457 1457 1457 1457 1456 1456 1456 1455 1454 1453 1453 1453 1452 1451 1451 1451 1450 1450 1449 1449 1448 1447 1447 1446 1446 1445 1445 1444 1444
1461 1461 1461 1460 1460 1459 1459 1459 1459 1458 1458 1457 1457 1456 1456 1456 1456 1455 1455 1455 1455 1454 1453 1452 1452 1452 1451 1450 1449 1449 1448 1448 1447 1447 1446 1445 1444 1444 1444 1443 1443 1442 1442
1459 1459 1459 1458 1458 1458 1457 1457 1457 1457 1457 1456 1456 1455 1455 1455 1455 1455 1454 1454 1453 1453 1452 1451 1451 1450 1449 1448 1448 1447 1446 1445 1445 1444 1443 1443 1442 1442 1442 1441 1441 1441 1440
1458 1457 1457 1456 1456 1456 1456 1456 1456 1455 1455 1455 1455 1455 1454 1454 1454 1454 1453 1453 1452 1451 1451 1450 1450 1448 1447 1446 1445 1445 1444 1443 1442 1442 1441 1441 1440 1440 1440 1439 1438 1438 1437
1456 1455 1455 1455 1455 1455 1455 1455 1454 1454 1455 1455 1454 1454 1454 1453 1453 1453 1452 1452 1451 1450 1450 1449 1448 1447 1445 1444 1443 1442 1441 1441 1440 1439 1439 1438 1438 1438 1437 1437 1436 1436 1435